Theta_e
337 336 336 343 339 339 338 337 339 341 341 346 347 347 347 347 345 343 342 340 338 338 343 343 344 341 341 341 341 341 341 340 340 340 340 340 340 341 341 342 341 342 342 343 345 346 347 347 346 345 347 347 347 347 347 347 347 346 346 346 346 345 346 345 345 344 344 343 343 343 342 344 346 346 345 345 344 343 341 342 341 338 337 340 344
337 337 337 336 341 341 341 341 341 340 346 347 347 347 346 346 344 343 342 341 341 341 342 342 343 343 342 340 340 339 339 340 340 339 340 340 341 340 340 340 341 341 341 343 345 345 345 346 346 345 345 345 346 346 346 346 346 345 345 345 345 344 344 344 344 343 343 342 343 342 343 346 345 345 345 344 345 343 342 341 341 337 337 343 343
337 338 337 337 343 342 340 340 340 340 344 346 346 347 346 344 343 342 341 341 341 342 341 342 344 344 343 343 343 341 340 340 340 341 341 340 340 340 340 340 340 340 340 340 342 343 343 344 344 345 345 345 345 345 345 345 345 344 344 344 343 343 343 342 342 342 342 342 342 342 343 343 343 343 345 344 345 344 342 342 341 340 337 341 340
337 338 336 340 343 342 340 341 341 341 345 346 346 346 346 344 344 342 341 341 341 340 339 342 343 343 343 343 343 342 341 341 342 342 341 341 341 341 341 341 341 341 341 341 342 342 343 343 345 344 344 344 344 344 344 344 343 343 343 344 343 343 342 342 342 341 340 339 339 338 337 336 340 341 342 343 344 343 341 341 340 340 341 341 341
337 337 336 337 336 340 341 341 340 339 342 346 346 346 346 344 342 341 341 340 340 339 341 345 345 345 345 344 344 344 343 342 342 341 341 342 343 343 343 342 342 341 341 341 341 342 344 344 344 344 345 344 344 343 342 343 343 343 343 343 343 342 342 341 341 340 340 339 338 336 333 335 336 339 344 344 343 340 340 339 339 340 339 339 339
337 336 335 334 334 337 342 340 339 341 345 346 345 346 346 343 342 341 341 337 334 335 340 341 343 344 345 346 345 343 343 343 343 343 342 343 343 342 342 342 342 342 343 342 342 343 344 344 344 344 344 345 343 343 343 343 343 343 343 343 342 342 341 340 340 339 338 337 336 333 333 334 335 338 343 343 341 339 339 339 339 338 338 338 338
337 335 334 334 334 337 342 342 341 342 345 346 345 345 346 343 342 342 339 337 339 339 339 341 343 343 344 346 345 345 345 344 344 345 344 344 344 343 343 343 343 341 341 341 341 343 344 344 343 344 344 344 343 343 342 342 342 343 343 343 342 341 340 339 338 337 336 333 331 331 332 333 334 335 343 342 342 340 339 339 338 338 338 337 337
336 335 334 334 335 339 343 342 341 340 342 345 345 345 346 345 342 339 339 339 337 335 339 340 342 342 344 345 345 345 345 344 344 345 345 344 343 343 343 342 343 343 342 343 343 343 343 343 343 343 344 343 343 343 342 342 341 342 342 342 341 340 339 339 337 337 335 330 329 330 331 332 333 335 341 341 341 339 338 338 338 337 336 335 334
334 334 334 334 334 341 342 343 341 341 342 344 345 345 345 345 342 341 340 338 337 337 338 339 341 342 343 345 345 344 345 344 344 343 343 343 343 343 342 342 342 343 343 343 342 343 343 343 343 343 343 343 342 342 342 342 342 341 341 341 340 339 338 337 336 335 332 330 329 329 329 330 330 331 337 338 338 337 336 336 336 335 334 333 332
334 333 334 333 334 340 341 343 342 343 343 344 344 344 345 345 342 341 340 338 337 337 337 336 340 343 344 344 344 344 344 344 343 343 342 343 342 343 343 342 342 342 343 343 343 343 343 344 343 342 343 342 341 342 341 342 342 341 341 341 339 338 337 336 335 333 329 329 329 330 333 335 329 330 334 336 336 335 334 335 336 333 333 333 333
334 333 334 333 334 340 343 344 344 343 342 343 343 345 345 345 343 341 340 338 337 337 337 337 340 343 343 343 343 344 344 343 342 342 342 342 341 342 341 341 341 342 341 341 342 343 342 342 342 342 342 342 342 341 341 341 341 340 341 340 339 338 336 334 331 327 327 327 327 328 333 336 329 329 337 337 337 335 335 333 333 332 332 332 332
336 333 333 333 340 340 343 344 343 342 342 342 342 344 345 344 342 341 341 339 338 337 337 338 338 341 342 343 343 343 342 342 341 341 341 341 341 341 341 341 340 340 341 340 341 341 341 341 342 341 341 341 341 341 341 340 340 340 339 338 337 335 334 332 327 326 326 326 327 328 327 329 329 333 336 337 336 335 333 332 332 331 331 332 331
335 334 333 333 334 338 341 343 342 342 342 341 342 344 344 343 343 342 341 339 337 337 335 337 338 338 341 342 342 342 342 341 341 340 340 340 340 339 340 340 340 340 340 340 340 341 341 341 341 341 340 340 340 340 340 340 340 339 338 337 336 335 333 331 326 326 325 325 326 326 327 328 329 334 335 334 334 333 333 332 331 331 330 330 330
335 335 334 334 334 341 339 340 341 343 343 342 341 343 343 342 341 340 339 338 338 336 337 337 338 338 340 342 340 340 340 340 340 339 339 339 339 339 339 339 339 339 339 340 340 340 340 340 340 340 340 339 339 339 339 339 339 338 337 336 334 333 330 329 329 325 325 324 326 325 324 325 328 333 333 334 333 332 331 330 331 329 329 329 328
335 335 333 334 336 337 340 338 339 341 342 343 343 343 342 341 340 338 338 338 337 337 337 336 336 337 342 341 339 339 340 340 340 340 340 339 340 340 340 340 340 340 339 339 339 338 339 340 340 339 339 339 339 339 339 338 337 336 335 334 332 330 328 324 324 322 324 324 323 323 322 325 334 332 333 331 331 330 330 329 329 329 328 328 328
336 335 335 335 336 336 336 339 337 338 338 340 341 341 342 341 339 338 337 337 337 337 337 337 337 338 340 341 341 341 340 340 339 339 339 339 339 339 339 339 339 339 338 338 339 338 338 339 339 339 338 337 337 337 337 337 336 335 333 332 331 329 326 324 322 320 320 321 321 321 321 325 332 330 330 330 330 330 329 329 328 328 327 327 327
334 335 337 337 336 335 334 336 334 334 335 336 337 338 340 341 341 338 337 337 339 338 339 338 337 337 340 340 340 340 339 339 339 339 339 339 337 337 337 338 338 338 337 337 338 337 338 338 338 338 338 337 336 336 336 335 334 333 332 331 330 328 326 324 321 318 319 321 320 319 319 324 329 330 330 328 326 327 327 328 328 327 326 325 326
333 335 337 337 336 333 334 334 334 333 332 333 333 335 337 340 340 339 338 338 340 341 341 341 340 340 339 339 339 339 339 339 338 338 338 338 338 338 338 336 336 336 337 337 337 337 337 337 337 337 337 336 336 335 334 333 333 332 331 330 328 326 324 322 318 318 319 322 318 320 319 332 330 328 328 328 328 327 327 327 327 326 326 326 326
335 335 337 337 337 335 335 333 332 332 331 330 329 332 333 335 336 336 336 338 337 337 337 337 336 335 335 335 335 334 333 334 333 334 334 334 333 331 334 336 336 337 336 336 336 336 336 336 336 336 335 334 334 334 333 333 331 330 329 327 326 323 322 320 316 316 316 316 316 318 319 331 328 329 328 327 327 327 327 327 326 326 325 325 325
335 335 336 337 337 336 336 335 333 333 331 330 329 329 330 331 333 334 334 334 333 333 333 332 329 328 328 329 328 328 328 327 327 327 329 331 330 328 331 336 336 335 335 335 335 335 335 335 335 334 333 332 332 331 331 332 330 329 327 325 322 320 317 315 314 314 314 317 318 315 327 332 328 328 328 327 326 326 326 325 325 325 324 325 324
334 334 335 337 337 337 336 336 335 335 334 331 328 328 329 329 330 329 329 329 329 330 329 325 322 322 322 322 323 322 321 321 322 321 323 322 322 325 329 334 336 336 334 334 335 334 334 334 334 333 332 331 325 325 324 328 328 327 325 322 318 314 313 313 313 315 314 314 316 317 331 332 328 326 327 326 326 326 326 325 325 324 324 323 322
331 331 334 336 337 337 336 336 336 336 335 334 332 326 326 329 326 326 324 325 325 324 322 322 326 319 321 321 320 321 320 318 320 325 320 321 322 323 325 330 334 333 334 334 334 333 332 334 333 332 331 326 321 316 315 319 322 323 320 318 314 311 312 312 313 313 314 315 316 322 331 329 326 326 327 326 326 325 324 324 324 324 323 323 323
329 331 332 334 336 336 337 336 336 336 335 335 333 331 330 330 327 323 323 324 323 320 320 320 318 319 317 318 318 320 318 318 318 319 319 320 322 322 325 328 331 331 332 333 332 331 331 332 332 330 327 321 315 312 314 313 313 316 316 314 310 311 311 311 312 312 313 313 313 326 332 329 326 326 326 326 325 325 324 323 323 323 323 322 322
329 331 331 334 336 335 335 336 335 336 335 335 334 332 331 331 327 322 323 322 320 320 318 317 318 318 318 318 318 317 317 316 324 325 323 318 320 321 322 323 325 325 324 324 327 328 328 327 327 322 318 315 313 312 313 313 313 313 313 312 309 310 311 310 311 311 311 315 312 325 328 329 325 326 326 325 325 324 323 322 322 322 321 322 321
330 332 332 332 334 334 335 335 335 335 335 334 333 331 331 330 328 323 322 321 321 320 319 318 316 317 316 318 317 316 316 317 318 315 316 316 315 316 316 316 315 314 317 313 312 309 311 306 311 314 312 312 313 312 313 314 314 314 313 310 310 309 311 309 310 310 311 311 312 322 324 329 328 327 326 326 325 323 323 322 323 322 321 321 320
331 330 331 333 334 334 335 335 335 335 335 334 333 332 331 330 329 327 323 322 321 320 319 320 319 319 316 316 318 317 315 317 314 314 314 314 316 313 313 312 311 312 313 311 310 309 308 309 309 313 310 311 311 311 310 310 312 311 311 310 308 308 310 309 309 310 311 311 311 320 323 326 328 330 327 327 325 324 323 323 323 322 321 321 321
330 330 331 333 334 334 335 335 334 334 334 335 334 332 331 331 330 328 325 323 321 321 320 319 320 318 317 316 318 316 316 315 314 313 314 312 315 313 312 311 311 312 312 312 308 309 309 310 309 309 310 311 309 309 308 308 309 311 309 308 308 308 308 309 308 309 309 310 313 317 322 327 328 328 329 329 327 327 326 325 323 323 323 322 322
330 331 331 332 332 333 334 334 334 334 334 335 333 332 332 331 331 328 326 323 322 322 321 321 320 320 318 318 318 319 318 315 315 315 314 312 315 313 311 311 311 312 313 310 309 308 308 309 310 309 310 308 309 309 308 308 308 309 311 308 308 309 308 309 307 309 309 310 310 313 318 321 325 328 329 329 330 328 328 326 324 324 324 324 323
329 330 331 331 331 333 334 333 334 334 334 334 333 332 332 332 331 329 328 323 323 323 323 321 321 320 319 319 317 318 317 317 316 316 313 315 313 312 312 312 311 311 310 311 309 308 308 307 309 311 307 308 307 308 308 309 307 308 310 310 308 309 309 308 308 307 308 310 310 311 316 318 322 326 329 329 329 330 329 329 327 326 326 326 325
328 329 329 330 331 333 333 333 333 334 334 334 333 332 332 331 330 329 329 325 324 324 321 321 322 321 319 318 319 319 319 319 317 314 315 315 313 312 312 312 313 311 310 314 309 309 309 308 309 310 309 308 308 309 308 308 307 307 307 309 307 308 307 308 308 307 308 308 311 311 314 316 319 324 326 329 330 329 329 329 329 329 328 328 328
327 327 328 329 330 332 333 333 332 331 334 334 333 332 332 331 330 329 329 327 325 323 323 323 322 321 321 319 319 319 320 319 318 316 315 314 314 314 314 313 312 311 312 314 309 311 309 310 311 310 308 308 309 308 309 309 309 309 307 307 308 307 308 306 306 306 307 309 309 309 312 314 317 320 324 326 328 330 329 329 329 330 331 330 330
326 327 328 329 329 331 333 333 332 332 333 334 333 333 332 331 331 330 328 327 325 324 323 323 323 323 322 320 319 319 319 318 318 316 316 315 314 314 313 313 314 312 313 313 311 311 311 309 309 309 309 309 308 307 307 309 311 311 307 307 306 307 308 307 306 306 306 307 309 310 310 312 314 317 319 322 325 327 329 330 330 329 331 332 332
326 327 327 326 328 330 332 332 333 331 333 334 333 333 332 332 331 330 329 327 326 325 324 324 324 323 322 321 320 319 319 319 317 317 316 316 315 314 312 313 315 314 313 312 310 310 309 309 309 309 309 308 308 311 307 307 307 311 307 309 306 309 308 307 307 306 306 307 306 307 309 310 310 312 314 316 321 324 327 328 330 330 331 331 332
325 325 326 326 328 330 331 332 332 332 332 334 334 333 331 331 331 331 329 328 328 326 325 325 324 324 322 321 321 319 318 319 318 317 316 316 315 315 314 314 313 312 312 311 311 310 311 308 308 309 309 308 310 311 307 310 308 306 308 307 305 308 308 310 310 310 309 308 307 306 307 308 309 312 313 314 316 319 323 326 328 329 330 329 330
323 324 325 326 326 328 330 332 330 332 330 332 331 332 331 330 330 331 330 329 329 328 327 326 325 325 324 323 322 321 319 319 319 318 317 316 315 314 313 315 313 310 311 311 312 310 311 312 307 308 306 306 305 307 305 308 307 309 309 307 308 308 307 310 311 311 310 312 311 311 310 309 310 311 312 312 311 314 318 321 324 325 326 327 328
324 324 325 325 326 327 328 330 329 330 331 331 331 331 330 330 330 327 330 329 329 329 328 327 326 327 327 326 325 324 322 321 319 318 317 316 316 315 315 313 311 311 311 309 309 311 310 310 307 309 308 308 305 309 304 306 305 308 308 307 308 307 308 309 309 309 310 308 309 309 309 308 309 309 309 309 309 312 314 316 318 321 323 324 326
324 324 324 324 325 326 326 328 328 330 330 330 330 330 330 329 329 329 329 328 328 328 329 328 326 327 328 328 327 325 323 321 319 318 318 316 315 316 314 313 311 312 310 309 310 311 311 310 307 306 308 308 306 307 309 307 309 310 310 309 309 309 309 310 309 308 306 304 307 306 307 307 306 307 306 306 307 308 310 312 314 316 316 318 321
324 324 325 325 325 326 326 327 329 329 330 330 330 330 329 329 329 329 326 328 327 327 327 326 326 327 328 327 327 326 324 322 319 318 318 317 316 316 312 312 312 311 310 310 311 309 309 311 310 306 308 308 309 310 311 311 310 310 311 310 310 309 309 309 307 304 303 305 305 304 305 303 304 305 306 306 305 305 307 310 312 312 312 314 317
325 324 324 325 325 326 325 325 327 329 329 330 329 329 328 327 328 328 328 328 327 327 327 326 326 325 326 327 326 325 323 322 320 318 318 317 315 314 313 311 312 311 311 310 310 308 309 308 310 309 306 311 312 312 312 311 311 311 311 311 310 307 306 304 303 301 300 301 302 304 301 303 301 302 302 303 302 304 305 307 308 308 309 310 313
324 324 323 324 325 325 325 325 326 328 329 329 328 327 326 326 326 327 327 328 329 327 327 327 325 325 325 325 325 325 323 321 320 319 319 318 317 316 314 311 311 312 311 310 310 310 309 308 309 310 310 311 311 312 311 310 310 309 309 309 306 304 303 302 300 301 302 300 301 299 302 301 299 301 300 301 302 304 306 306 305 307 306 308 310
323 323 323 323 324 325 324 324 325 327 328 328 327 328 327 327 327 327 327 329 329 329 328 328 327 326 325 325 325 324 324 323 322 321 320 318 318 318 315 312 313 313 313 313 313 312 312 313 313 312 312 309 307 305 306 308 308 307 304 304 304 301 302 302 302 302 300 299 299 299 299 298 299 299 299 298 301 303 304 305 305 305 305 306 306
321 322 322 323 324 324 324 324 325 326 327 328 328 327 329 329 328 328 328 329 329 328 328 328 328 327 326 326 326 325 325 325 324 323 322 320 318 316 315 315 314 314 314 314 313 311 314 313 312 310 309 309 305 303 304 307 306 306 306 305 303 303 302 299 299 300 298 300 300 298 296 297 299 298 297 297 298 298 300 302 302 302 304 304 305
322 322 323 323 323 324 324 324 324 325 327 328 328 327 328 328 328 327 328 325 327 330 330 329 328 328 328 327 326 326 326 326 326 324 323 322 320 317 316 316 314 313 313 313 313 312 313 313 312 312 309 306 306 305 308 310 308 303 303 303 302 301 300 298 293 294 297 298 296 296 295 296 297 295 294 294 297 297 297 296 297 300 302 303 304
321 322 322 322 323 323 324 324 324 324 326 327 325 328 327 325 321 319 322 325 324 321 326 326 328 328 328 328 327 327 327 327 327 325 324 323 321 318 317 316 316 313 313 313 310 312 312 312 312 311 309 304 303 308 308 308 309 306 305 302 300 298 300 296 295 299 296 296 296 295 295 295 296 295 293 297 298 298 297 296 297 299 301 302 303
320 321 322 323 324 323 324 324 324 324 325 325 325 326 322 319 318 314 315 316 315 321 324 325 327 326 327 327 327 327 327 327 327 326 324 324 321 319 318 317 317 313 313 313 312 313 314 313 312 309 308 310 307 306 305 304 306 309 309 302 300 297 299 298 301 304 297 300 298 294 294 294 295 295 294 298 297 296 296 296 297 297 299 300 302
319 321 323 323 323 324 324 324 324 324 324 324 325 324 323 324 320 321 320 321 322 320 321 322 323 324 325 327 327 327 327 327 326 325 324 322 321 320 320 319 316 313 313 315 315 313 312 310 310 311 311 311 312 307 305 304 303 304 307 308 308 305 302 299 303 299 300 298 297 295 293 293 293 295 297 298 299 300 297 297 297 297 297 298 299
318 320 321 323 323 323 323 324 324 324 324 323 324 322 323 323 322 324 324 323 323 323 325 322 326 326 326 326 327 327 327 327 325 325 324 322 322 321 320 319 317 315 314 315 313 312 312 311 311 312 312 311 309 308 307 305 302 304 304 305 305 303 303 303 299 298 297 298 298 300 300 295 294 295 297 299 299 298 299 297 296 296 296 296 297
317 318 319 321 322 322 323 323 324 323 324 323 322 323 323 323 322 322 322 322 322 323 321 317 316 320 324 326 326 326 326 327 326 325 325 323 322 322 321 319 318 317 314 314 314 313 312 311 312 312 311 310 309 309 308 306 306 304 302 302 301 302 302 301 302 300 297 294 298 299 296 295 298 299 298 297 297 298 298 297 296 295 295 295 294
315 317 318 319 321 322 321 322 323 322 322 321 321 321 322 324 323 322 321 321 322 319 309 310 317 318 323 324 325 325 325 326 326 325 324 323 321 322 320 319 318 317 313 315 314 314 314 312 310 309 309 308 307 308 308 308 306 307 300 299 299 300 300 299 298 299 296 293 295 296 297 298 295 295 297 295 297 296 296 296 295 294 294 295 295
314 315 316 316 318 319 319 319 321 322 321 320 320 320 321 321 322 322 321 320 317 311 310 312 315 317 321 322 324 323 323 323 323 324 323 323 322 321 321 320 319 318 313 316 315 313 313 312 311 310 309 308 308 308 308 306 306 305 305 302 298 296 297 296 296 296 296 296 294 294 295 294 293 293 295 296 295 296 296 296 295 295 295 295 295
308 310 312 313 315 317 318 318 320 321 319 320 319 320 320 321 321 321 321 320 317 314 311 310 313 315 319 320 321 322 322 322 322 321 322 322 321 320 321 320 318 314 314 315 314 313 312 312 311 310 309 309 307 307 306 306 304 303 303 303 303 302 301 297 296 295 295 292 292 291 293 295 296 296 296 295 295 296 296 294 294 294 294 294 294
Wind_Speed
4 4 3 8 9 10 10 9 10 10 9 7 9 9 9 11 12 10 10 11 10 11 13 13 13 15 13 14 15 15 15 15 15 16 16 16 16 15 15 15 15 14 14 15 16 17 18 19 18 19 18 18 18 18 19 19 18 18 19 19 19 19 19 19 19 19 19 19 18 17 17 17 19 19 19 19 18 17 15 16 14 12 9 14 19
8 4 3 5 10 9 11 11 8 8 11 8 9 10 9 10 12 10 10 11 10 11 12 13 14 15 14 14 14 15 14 14 16 15 16 17 17 17 16 16 15 15 15 15 17 17 17 18 18 18 17 17 17 18 19 18 18 18 18 18 18 18 18 18 18 18 17 17 17 17 18 17 18 19 19 19 18 17 15 17 17 9 7 17 17
7 5 4 5 9 9 11 12 10 8 10 10 11 11 8 11 11 10 9 10 10 11 12 13 14 14 13 13 13 14 14 14 15 16 16 16 16 17 17 17 16 15 15 15 15 17 17 17 17 17 16 16 16 17 18 18 18 18 18 18 18 17 18 18 19 18 16 16 16 16 15 17 17 18 18 19 18 18 15 17 16 15 10 17 15
9 6 5 6 8 9 10 11 10 9 11 10 11 10 7 10 11 10 10 8 10 11 10 13 12 13 13 14 14 14 14 14 15 15 16 16 16 16 16 17 16 15 16 16 16 17 16 17 17 16 16 17 17 17 17 18 18 18 18 18 18 17 18 19 18 17 16 15 14 12 6 6 10 17 18 19 19 19 16 17 17 16 17 15 17
8 6 5 4 4 7 10 9 9 7 10 9 11 10 9 11 12 11 10 10 10 10 12 13 12 11 12 13 15 14 14 13 14 15 15 16 16 16 16 16 16 16 16 17 17 16 17 16 16 16 17 17 17 17 17 17 18 18 18 18 18 17 17 17 17 17 16 14 14 10 6 7 6 15 18 19 18 16 16 16 16 16 16 16 16
8 6 5 4 4 4 9 10 9 9 9 10 11 11 8 11 11 11 10 11 10 9 11 11 12 11 12 12 13 14 14 13 14 14 15 15 16 15 16 17 17 17 16 17 17 17 16 16 16 17 17 17 17 17 17 17 18 18 18 18 17 17 17 17 16 15 13 13 11 6 7 6 6 8 17 17 17 14 15 15 15 15 16 17 17
9 5 5 5 4 5 8 9 9 11 11 10 11 10 9 9 12 11 10 10 11 11 11 12 11 10 12 12 12 14 14 13 14 15 15 15 15 15 15 15 16 16 16 17 17 16 17 17 16 17 17 16 16 16 16 17 17 18 18 17 17 17 16 15 14 14 12 8 6 6 6 6 5 5 14 16 16 16 16 16 15 15 15 15 16
6 5 5 5 4 6 8 9 9 8 11 10 10 10 9 6 11 11 10 9 9 8 12 11 11 10 11 11 13 14 14 14 14 15 15 15 14 15 15 15 16 16 16 16 16 16 17 17 16 16 16 16 16 16 16 16 17 17 17 17 16 16 15 15 14 13 12 6 5 5 6 6 6 5 14 15 16 16 16 15 14 15 15 15 12
6 5 5 5 4 8 8 8 9 9 8 10 11 11 10 7 10 12 11 10 9 9 10 11 11 11 12 12 13 13 14 14 15 15 15 15 14 15 15 15 15 16 16 16 16 17 16 17 16 16 16 16 16 16 16 16 17 16 17 16 16 15 14 13 12 11 7 5 6 6 6 6 5 5 14 17 16 16 15 12 11 14 14 12 13
5 4 5 4 4 8 8 8 10 9 9 11 11 11 11 7 9 12 11 10 10 8 9 10 12 12 11 12 12 13 13 14 14 14 14 15 15 15 15 14 14 15 15 15 16 16 16 17 16 16 16 16 16 16 16 16 16 16 15 15 15 14 13 13 12 8 6 5 6 6 5 7 5 5 12 16 16 15 13 9 8 6 7 13 14
5 5 4 4 5 9 8 8 9 9 10 11 11 11 11 8 8 11 12 11 10 9 10 10 10 12 11 12 12 13 14 14 14 14 13 13 14 14 14 15 14 14 14 14 15 16 16 16 16 16 16 16 15 15 15 15 15 15 15 15 14 13 13 11 9 6 5 6 6 5 5 6 4 4 12 14 15 14 10 11 10 11 12 13 13
6 4 4 3 7 9 8 8 9 10 9 10 11 11 11 8 9 11 12 12 10 9 9 11 9 12 12 13 13 13 13 13 13 12 12 12 13 13 13 13 14 14 13 13 14 16 16 16 16 17 17 15 15 15 14 15 14 14 14 14 13 12 11 10 6 6 5 5 5 4 4 4 4 7 13 13 13 12 11 12 11 12 12 12 12
7 4 3 3 4 7 9 8 8 9 9 10 10 11 11 10 11 11 12 11 10 9 8 10 11 9 11 12 12 13 13 13 12 12 12 12 12 13 13 13 13 13 13 13 14 14 14 15 16 16 16 16 15 15 14 14 14 14 14 13 13 12 11 9 5 6 5 5 5 5 5 4 4 10 11 12 12 11 11 11 11 11 12 12 12
9 6 4 3 3 8 9 8 8 7 6 8 11 11 11 11 10 10 10 10 10 10 9 10 10 10 11 11 11 11 11 11 11 11 12 12 12 12 12 12 13 13 12 12 13 13 13 14 15 16 15 14 14 14 14 13 13 13 13 13 11 10 9 7 6 5 5 5 5 5 4 3 2 9 11 11 11 10 11 12 13 12 12 12 11
10 8 5 4 3 4 9 8 7 7 6 6 6 7 10 10 9 8 9 10 10 10 10 10 9 10 11 10 9 11 11 11 11 11 11 12 12 12 12 12 12 12 12 12 12 12 12 13 14 15 14 13 13 12 13 13 12 12 11 11 10 8 7 5 4 4 4 4 3 4 4 3 9 10 10 10 10 10 11 11 10 10 10 10 11
8 8 5 4 3 4 5 7 7 7 6 7 6 6 7 9 9 9 8 8 9 10 9 10 10 11 10 11 12 12 12 11 11 11 9 9 11 11 11 12 12 11 12 11 11 11 12 12 12 13 14 14 13 12 12 12 11 10 10 9 8 7 7 5 4 3 3 4 3 3 3 2 9 8 8 10 11 10 9 9 9 10 9 9 10
7 6 7 6 5 4 4 4 5 7 6 7 6 6 7 7 8 9 8 7 6 8 8 8 9 9 10 10 11 11 11 10 10 9 7 8 10 9 10 11 11 11 11 11 11 11 11 10 11 11 12 13 14 13 12 11 10 9 8 7 6 7 7 5 4 3 3 3 3 3 2 3 6 8 9 9 9 8 9 9 9 9 9 8 8
6 8 8 7 6 4 4 4 5 4 3 5 6 7 6 7 7 7 6 5 5 8 8 8 9 10 9 7 8 9 10 9 9 8 7 7 7 7 8 9 10 10 10 10 10 10 10 9 9 10 11 12 13 13 13 11 10 8 6 6 6 6 6 6 3 3 3 3 4 3 2 1 8 8 8 8 7 8 7 8 7 7 8 9 8
7 7 7 7 7 6 4 4 4 4 4 3 3 4 7 7 7 7 6 6 7 7 7 8 9 9 8 8 8 9 9 9 8 8 7 8 8 7 7 7 9 9 9 9 9 9 8 8 8 9 9 10 11 11 12 11 9 7 7 6 6 6 6 4 3 3 3 3 3 3 3 5 6 7 7 7 7 6 6 6 7 7 7 6 7
7 7 8 7 6 7 5 5 5 5 4 3 3 3 6 7 7 7 7 7 7 7 8 8 9 9 9 8 9 7 7 6 8 6 8 7 7 5 6 6 7 9 9 8 8 8 7 7 7 8 9 9 9 9 9 10 10 8 6 5 5 5 3 2 2 3 2 2 2 3 5 4 5 8 7 6 5 5 5 5 5 5 5 6 6
7 7 7 7 7 7 7 6 6 6 5 4 3 3 4 7 6 7 8 7 8 8 7 8 7 8 7 7 7 5 4 3 4 4 6 4 6 7 7 7 7 6 7 8 7 7 6 6 6 7 8 8 7 8 8 8 9 8 7 5 5 3 2 2 2 1 1 1 2 1 6 5 7 6 5 4 5 5 5 5 5 5 5 3 4
8 8 8 8 8 7 7 7 6 7 6 5 3 3 3 5 4 4 4 5 6 6 5 4 5 4 6 5 4 4 4 3 3 4 3 4 5 7 7 6 6 5 6 7 7 5 5 5 6 7 8 8 7 5 5 6 8 7 7 6 4 2 1 1 1 1 1 1 0 2 5 5 3 4 5 5 5 5 4 2 3 3 2 5 5
10 8 8 11 8 7 7 8 6 7 8 6 4 4 4 4 3 3 4 4 4 4 4 4 3 4 3 3 3 3 3 3 3 3 3 4 4 7 7 7 6 7 7 6 6 5 5 5 6 7 8 8 5 4 4 5 5 6 6 4 2 1 1 0 1 0 1 0 0 4 4 4 3 2 5 3 3 4 3 2 3 4 4 3 3
10 8 8 8 8 8 9 8 8 7 7 7 5 5 4 4 3 3 4 4 4 3 3 3 3 3 3 3 3 3 3 3 4 5 5 3 4 5 6 7 7 6 7 5 5 6 5 6 6 5 4 3 4 5 5 5 5 3 3 4 2 1 0 1 1 1 1 1 0 3 3 4 2 4 2 3 4 2 2 3 2 2 2 4 4
8 7 7 9 11 9 9 8 8 10 9 7 6 5 4 4 4 3 4 4 3 3 4 4 3 3 3 3 3 3 3 3 4 3 3 3 3 3 3 3 3 3 3 3 2 2 3 3 2 3 3 3 4 4 4 5 4 5 3 2 1 1 0 1 1 1 2 2 2 4 3 4 4 2 2 1 2 1 2 1 2 1 1 2 2
7 9 10 9 10 10 9 8 9 10 8 7 8 6 6 5 5 5 4 3 4 4 4 4 4 4 3 3 4 4 3 3 3 3 3 3 4 3 2 2 2 2 1 2 1 1 2 2 1 2 2 2 2 2 3 2 3 5 4 3 2 1 0 1 2 2 2 2 3 5 4 4 5 8 3 3 3 4 3 5 5 2 1 3 4
8 9 8 8 9 10 9 8 9 9 9 7 5 6 7 6 6 5 5 5 4 4 4 4 4 3 3 3 4 4 3 3 3 3 4 2 3 3 3 2 2 2 0 1 1 1 1 1 1 1 1 2 3 3 3 2 1 2 3 3 2 2 1 1 2 3 2 2 4 7 7 6 6 7 7 7 6 7 9 8 6 5 5 4 6
8 9 9 9 9 11 10 9 9 9 8 8 7 8 7 6 6 6 5 5 5 5 5 5 4 5 4 4 3 4 4 4 3 4 4 2 3 3 2 2 1 2 1 1 1 0 0 1 1 0 1 1 3 3 2 1 1 0 2 2 1 2 2 1 2 3 3 3 3 5 7 9 10 7 9 9 8 8 12 10 7 9 9 8 7
11 10 9 9 10 10 11 11 10 10 8 8 9 7 6 6 6 6 6 5 5 5 5 4 4 4 4 4 3 4 3 4 4 4 2 4 3 3 3 3 2 2 2 1 1 1 1 0 1 0 0 1 1 3 2 2 1 1 0 2 1 0 1 2 1 2 3 3 3 5 7 8 9 10 10 11 12 12 11 12 11 10 12 11 11
13 11 10 9 9 10 11 12 11 10 9 9 7 7 7 7 7 8 7 5 6 6 4 5 5 5 5 4 5 5 5 5 5 3 4 4 3 2 3 3 3 2 2 3 3 2 2 1 1 1 1 2 2 3 1 2 2 2 1 2 3 2 1 2 2 2 2 3 3 4 6 7 8 8 11 12 12 13 14 14 14 15 14 15 15
10 11 10 9 8 10 10 11 10 10 9 9 8 8 7 8 7 7 6 6 6 5 5 5 5 5 5 5 5 5 5 5 5 5 4 4 3 3 5 3 3 3 4 4 2 3 2 3 3 3 3 2 3 2 1 3 4 3 1 1 3 3 3 1 2 3 3 3 3 3 5 8 9 8 8 11 12 14 15 16 16 16 16 16 16
12 12 10 8 8 11 11 11 10 10 10 10 9 8 8 8 8 7 7 7 6 6 5 5 5 5 4 5 5 6 6 5 5 5 5 5 4 5 4 4 5 4 4 4 3 3 3 2 1 1 1 0 2 2 1 2 4 4 2 3 2 2 3 2 2 3 3 3 3 4 4 5 8 9 9 9 12 13 13 15 17 18 18 19 18
8 9 9 9 11 10 10 10 10 10 11 11 9 8 8 8 8 8 7 7 7 6 6 6 6 5 5 6 6 6 6 6 6 6 5 5 5 5 5 5 5 4 4 4 3 2 2 2 2 0 1 1 2 5 2 1 3 5 3 4 3 4 3 2 3 3 4 4 4 4 4 4 4 7 9 10 10 12 13 14 15 16 18 19 20
9 7 8 11 9 7 8 8 10 11 12 10 9 8 8 8 7 7 7 8 7 7 7 6 6 5 5 6 6 6 6 6 6 6 5 5 5 5 5 5 5 4 3 3 4 4 4 3 4 1 3 2 4 5 3 5 5 4 5 4 3 5 4 6 5 5 4 4 4 3 5 4 5 4 5 8 10 10 12 14 15 16 17 18 19
7 8 11 11 9 9 8 8 10 11 11 11 10 9 8 8 8 7 7 8 7 7 7 6 6 6 5 6 6 6 6 7 6 7 6 6 6 5 5 6 3 3 4 5 5 3 3 5 3 3 2 2 3 3 3 4 4 6 5 3 5 5 4 5 5 5 5 5 3 4 4 4 5 4 5 5 6 9 10 12 14 15 16 17 18
11 11 10 9 10 9 10 10 10 12 12 12 10 9 9 8 8 8 8 8 7 8 7 7 7 7 7 7 7 7 6 6 6 6 6 6 6 6 7 4 4 3 3 3 3 4 5 4 4 3 3 5 3 4 2 4 3 5 5 4 5 4 5 5 6 6 5 4 6 5 4 4 4 5 4 5 5 5 9 9 12 14 14 16 17
11 11 11 9 10 10 11 12 12 13 12 12 10 9 8 9 9 8 9 8 8 8 7 7 7 8 7 7 7 7 7 6 6 6 6 6 6 6 6 5 4 5 5 5 5 5 5 5 3 3 4 4 3 4 5 3 5 4 4 5 5 5 5 5 6 6 4 4 5 5 5 5 4 5 5 4 4 4 6 8 9 11 12 13 15
12 12 11 12 13 11 11 12 11 12 11 11 11 10 8 8 8 8 8 9 9 8 6 6 8 8 8 8 7 8 8 7 6 6 6 6 6 6 4 5 5 5 5 5 6 4 4 5 5 3 4 3 4 4 5 3 3 4 5 5 6 4 5 5 5 4 4 5 5 5 5 4 5 5 5 4 5 5 5 6 8 8 11 10 14
11 12 11 11 10 10 10 11 11 11 11 11 10 9 8 7 7 8 8 9 8 8 7 7 7 7 8 8 8 7 7 6 6 6 6 6 5 5 4 4 5 5 5 5 5 4 4 4 5 4 3 4 4 3 4 2 3 3 4 6 4 5 5 5 5 4 5 5 5 5 3 5 4 5 5 5 5 5 6 5 5 5 7 10 12
11 11 12 11 12 11 10 10 11 11 9 8 8 8 7 8 8 6 8 9 9 8 8 8 7 8 8 8 8 8 7 7 6 6 6 6 5 5 6 4 5 5 5 5 5 6 5 4 5 4 4 3 3 3 3 3 3 4 6 6 5 5 5 5 4 5 5 4 3 3 5 5 4 5 4 5 5 5 5 5 5 5 6 8 11
11 12 12 13 13 13 11 14 12 11 10 10 10 10 10 9 9 11 12 9 8 7 8 8 8 7 7 8 8 8 7 7 7 6 6 6 6 5 5 4 5 5 5 7 7 5 6 7 4 3 4 3 3 2 1 1 2 5 3 5 5 3 6 5 5 5 4 4 3 4 4 5 5 5 4 4 5 5 5 5 5 5 6 6 8
13 12 14 14 13 12 14 14 11 11 12 12 11 11 11 11 11 10 8 8 8 9 9 7 8 7 8 8 8 8 8 8 8 7 7 7 6 5 5 6 6 6 6 5 3 5 5 4 3 1 1 4 3 2 3 2 1 3 5 6 4 4 5 2 4 4 3 5 4 3 3 3 6 3 3 4 4 4 5 5 5 5 6 5 6
12 14 14 13 14 14 14 13 12 12 12 12 11 12 11 9 10 7 9 5 4 6 6 5 6 7 8 9 9 9 9 9 8 8 7 7 7 6 6 6 6 6 5 5 5 5 5 6 5 5 3 1 3 2 4 5 3 1 1 2 5 7 3 1 2 2 4 3 1 1 2 4 5 3 3 3 5 5 4 3 4 5 5 5 6
13 13 12 14 12 13 12 12 11 11 12 13 13 11 10 7 5 4 6 8 6 5 5 4 7 8 10 9 9 9 9 9 8 8 7 7 7 7 6 5 6 6 7 7 5 6 5 5 5 6 4 3 3 5 5 6 5 2 4 2 1 0 7 2 2 5 3 2 1 2 1 3 4 4 2 4 5 5 5 4 5 5 5 6 6
14 14 14 14 12 14 13 13 12 13 12 12 12 9 7 5 5 3 3 3 1 5 6 8 10 9 8 9 10 8 8 9 8 8 8 8 7 6 6 7 6 6 6 6 6 8 7 6 6 5 6 6 4 4 1 2 4 4 5 0 2 0 4 3 4 4 2 0 1 1 1 3 4 4 3 5 5 5 5 5 5 5 5 5 6
15 16 14 15 13 13 12 12 11 11 12 11 12 10 10 11 9 9 9 9 10 8 12 15 11 10 13 6 6 9 9 8 8 8 8 7 7 7 7 6 6 6 7 7 7 6 6 6 8 7 6 6 6 3 2 1 2 2 4 3 3 3 2 1 2 4 3 1 2 0 2 3 3 3 4 4 6 6 5 6 5 6 5 5 5
17 12 11 13 14 12 12 13 13 11 11 11 11 11 10 11 13 14 13 13 12 11 10 6 8 8 5 7 8 7 9 9 8 8 7 8 8 7 7 7 7 6 7 6 5 6 7 7 4 5 7 5 3 4 5 4 1 3 4 5 4 0 1 0 4 1 5 3 2 2 4 3 1 1 4 5 6 5 7 6 6 6 5 5 5
13 9 13 12 13 15 14 15 12 11 11 11 11 13 13 11 12 13 13 12 13 13 9 6 4 4 7 8 7 7 8 8 8 8 8 8 7 7 7 7 7 7 6 6 6 5 4 3 6 5 3 5 6 6 6 5 5 2 2 4 3 1 1 2 3 4 3 5 7 2 0 3 7 7 5 4 5 6 7 6 6 6 6 6 5
10 13 13 12 12 12 12 11 13 12 9 10 11 11 12 13 13 12 12 10 10 8 4 5 5 6 8 7 7 7 7 8 8 8 8 7 7 7 7 6 6 6 6 5 5 5 6 5 4 4 6 5 5 4 3 4 4 4 2 1 2 2 1 1 2 2 3 1 4 3 9 8 3 4 4 4 5 5 6 6 6 6 5 6 5
11 10 9 9 9 10 11 12 13 10 10 10 11 12 13 11 12 12 14 11 7 5 5 6 6 6 8 8 8 7 7 7 7 7 7 7 8 7 7 7 7 6 6 6 6 5 4 4 5 6 5 5 4 4 5 3 3 3 3 3 2 1 1 1 1 2 1 2 4 3 3 7 14 3 2 5 5 5 6 6 6 5 6 5 5
6 6 8 9 9 10 12 14 14 11 10 11 11 13 12 12 13 13 14 13 10 8 6 6 6 7 9 9 8 7 6 7 6 6 7 7 7 7 7 7 6 6 7 6 5 6 5 5 5 4 4 5 5 5 4 2 3 3 3 4 4 3 4 4 4 2 3 1 1 3 2 4 6 13 3 1 5 7 6 6 5 6 5 5 5
Wind_Direction
175 169 168 136 132 135 134 140 137 147 144 104 116 105 103 105 102 102 99 88 92 99 92 87 87 83 82 81 81 80 81 82 86 84 80 77 77 78 77 74 76 74 76 77 79 79 78 77 76 76 73 71 72 72 73 73 71 70 69 68 67 66 66 63 61 59 57 60 65 70 77 82 86 87 86 83 80 80 77 76 72 72 69 76 76
165 171 147 137 143 133 132 141 145 141 111 122 115 107 103 109 100 96 96 97 96 95 96 97 92 87 87 87 85 85 86 85 82 84 87 85 81 80 79 76 73 77 83 84 82 80 79 79 76 74 72 72 74 77 75 75 75 74 73 72 72 71 71 69 67 66 67 70 74 71 73 79 84 87 88 85 82 79 76 75 73 69 68 77 77
141 137 144 147 144 141 140 137 138 141 115 113 110 111 120 107 105 102 102 108 113 101 90 91 89 93 92 91 92 89 82 88 88 81 80 80 84 87 87 86 83 83 87 84 81 82 81 79 78 76 77 78 78 77 79 78 78 78 77 76 75 74 72 74 74 69 64 62 65 64 65 73 79 86 88 87 84 79 77 78 77 76 78 78 77
132 138 142 147 141 145 138 143 144 138 109 112 114 115 118 109 108 105 96 89 85 87 90 91 97 101 102 98 94 93 88 83 85 85 87 88 91 89 88 89 89 88 85 86 88 87 83 81 78 78 82 84 83 81 79 80 79 79 80 79 77 76 73 72 67 64 63 63 64 65 46 46 64 79 81 82 82 79 77 78 78 77 77 75 76
131 137 139 132 140 145 143 129 132 139 121 117 121 122 130 122 111 104 106 96 90 97 97 91 88 91 92 98 101 95 93 88 87 92 90 90 86 86 86 87 89 88 90 92 93 89 85 83 81 85 88 86 81 80 79 81 82 82 80 77 75 73 72 67 65 68 66 61 64 59 42 49 52 75 82 80 78 77 77 77 76 76 75 75 74
138 136 133 131 137 137 134 139 146 146 130 128 124 130 134 118 115 114 106 98 113 114 97 97 95 89 92 97 99 99 95 91 87 85 89 85 84 85 87 88 87 89 90 92 89 84 84 83 85 87 88 87 86 83 82 82 84 83 81 80 78 74 72 71 68 64 61 59 54 47 50 52 53 62 75 82 80 76 79 81 80 76 75 74 73
133 134 131 132 133 139 138 146 153 138 129 128 128 131 130 121 115 108 111 120 98 96 105 100 98 94 93 96 97 101 100 95 91 91 89 84 83 83 85 87 87 88 94 95 91 81 80 83 87 87 86 86 86 85 84 85 86 86 84 82 80 77 75 72 69 65 57 51 50 48 47 46 45 85 81 82 81 76 74 75 77 78 77 77 77
121 128 132 134 140 149 144 144 141 134 129 129 132 137 130 119 120 115 110 95 100 106 102 105 104 100 90 98 99 97 98 93 88 83 83 86 88 87 88 88 90 95 95 94 87 84 83 83 84 87 86 84 86 87 88 90 90 88 85 83 79 77 74 71 69 64 58 54 48 48 50 49 55 51 75 74 73 74 74 75 75 75 75 75 68
132 134 135 140 153 148 143 142 136 132 133 129 131 136 134 127 124 119 112 107 109 104 95 98 100 102 100 100 101 98 91 89 87 84 82 83 84 85 84 86 92 94 95 96 90 84 83 82 81 86 89 88 87 86 88 89 89 87 86 82 81 78 75 70 64 58 54 55 55 57 55 52 49 54 71 72 70 67 63 54 61 72 76 74 75
136 137 141 144 156 142 137 139 142 140 139 133 132 140 139 135 128 120 114 112 115 116 110 103 97 98 99 98 96 97 95 91 86 85 84 82 83 84 85 86 83 87 94 94 89 86 82 79 76 83 87 87 85 86 87 89 88 87 85 83 81 78 73 67 61 53 55 51 53 54 56 60 53 61 77 78 76 74 72 70 74 72 79 77 77
140 143 146 148 152 143 146 142 140 144 142 135 133 136 143 139 136 124 121 119 118 117 118 116 110 100 101 99 96 95 93 91 89 87 89 89 88 86 85 84 85 85 95 100 90 84 81 79 79 83 84 85 85 87 87 87 88 86 85 85 81 79 73 67 60 55 51 50 51 41 43 53 68 80 85 85 84 82 82 82 83 79 75 73 70
142 148 153 157 153 147 144 137 146 146 144 140 138 139 140 139 129 122 123 125 125 119 122 121 118 117 106 106 106 101 94 93 94 95 93 93 89 89 91 92 90 90 93 99 92 86 84 83 80 81 83 84 85 87 89 87 85 84 83 80 79 74 68 62 61 58 53 49 46 39 34 43 62 79 79 80 82 85 84 76 71 68 68 66 64
147 152 157 164 150 149 139 144 147 147 151 146 140 140 135 128 125 125 128 127 128 123 116 119 119 116 109 105 104 100 101 100 100 103 102 99 102 100 97 94 93 91 95 101 99 91 87 86 84 84 86 87 87 87 88 89 88 86 84 81 77 71 63 59 60 57 49 45 41 35 41 50 56 69 66 68 75 74 74 73 72 68 66 64 66
151 156 165 159 156 149 141 144 145 151 148 148 146 142 138 130 127 125 131 133 134 135 132 124 121 125 122 122 112 109 108 106 104 108 109 106 104 105 103 101 96 94 100 105 104 94 91 89 86 86 85 86 86 87 87 89 89 88 87 85 80 72 63 55 50 51 44 31 27 21 14 355 51 63 66 63 65 68 66 58 54 54 56 57 57
156 159 161 155 157 147 147 145 147 144 145 134 124 129 138 133 124 129 134 142 141 140 138 130 131 124 81 84 115 115 104 102 101 100 102 105 99 98 98 98 97 96 94 99 102 97 94 90 83 85 86 85 85 87 89 90 91 90 88 85 80 70 72 74 64 58 51 40 26 26 12 3 52 69 70 71 75 70 64 67 69 69 64 60 56
157 154 153 152 149 149 144 148 145 143 139 130 126 128 132 132 132 137 143 143 145 146 141 136 140 117 99 99 100 105 107 106 105 107 104 103 106 106 105 100 99 96 96 97 98 97 97 84 74 75 80 82 81 82 85 89 90 92 90 87 79 78 85 85 75 61 59 49 35 34 13 13 73 65 71 74 82 87 88 76 75 76 71 63 61
154 153 155 155 150 148 147 145 146 142 135 131 131 128 126 132 138 139 141 147 152 133 117 130 137 125 106 113 106 103 103 103 99 94 89 102 108 105 108 107 104 102 101 98 98 96 90 75 69 68 75 78 77 78 78 81 83 85 87 85 79 82 80 76 64 45 44 43 45 25 8 35 70 77 85 88 79 73 68 78 72 61 55 60 65
158 158 161 159 154 152 147 143 141 134 130 131 133 134 132 134 136 137 136 143 101 108 108 101 96 97 99 97 97 96 94 91 85 76 73 75 82 89 98 106 107 106 105 101 97 98 90 75 68 64 69 74 77 77 74 72 72 72 69 79 86 88 82 75 68 38 36 36 24 15 351 32 95 85 66 68 77 80 89 79 77 71 60 54 54
161 164 160 161 164 151 152 146 143 134 136 135 136 139 136 134 131 133 134 107 107 107 111 109 109 106 104 102 98 96 92 89 87 85 79 77 74 72 84 101 112 108 107 104 100 89 81 72 66 66 66 70 70 69 70 69 66 65 66 80 91 89 80 75 69 51 36 24 3 6 344 86 52 71 96 98 95 93 75 73 64 59 66 62 56
166 166 166 170 167 160 159 155 150 146 145 144 144 138 138 137 137 135 124 121 119 116 112 112 111 111 109 104 100 95 90 88 85 74 77 76 76 77 85 94 108 110 106 105 101 92 80 71 65 64 62 60 57 54 53 61 62 63 62 86 90 83 73 75 82 66 33 9 6 352 335 353 112 112 98 84 82 77 69 62 69 74 60 56 49
172 175 174 172 172 169 161 161 159 153 148 149 144 142 147 139 135 130 127 130 129 122 115 111 112 113 111 108 101 98 97 93 83 84 78 82 84 78 74 75 78 97 111 110 102 91 81 69 68 63 57 48 42 41 37 50 58 54 66 79 79 65 70 80 78 68 41 358 9 338 58 42 84 93 109 99 69 66 57 48 38 48 56 48 39
176 177 190 180 174 174 171 166 162 154 150 148 148 145 145 137 136 133 131 135 130 122 121 127 123 122 120 113 112 113 109 105 100 95 92 91 87 89 82 82 81 77 89 105 94 84 85 78 62 57 47 46 43 34 19 25 51 53 63 74 67 67 60 71 78 81 80 352 343 354 19 60 93 53 51 52 60 45 45 20 102 76 39 42 35
181 179 186 189 182 177 178 176 164 158 154 148 149 148 146 138 143 142 138 140 141 133 136 132 135 138 132 123 121 123 123 120 123 121 107 100 105 101 97 90 87 81 80 78 89 83 83 69 49 44 37 34 34 19 13 16 26 45 38 45 49 51 62 70 119 204 216 240 338 5 20 321 50 349 58 42 49 49 37 121 34 15 33 35 49
182 180 177 183 180 179 186 181 174 168 160 163 150 153 154 147 151 153 148 152 150 153 150 147 150 151 145 135 129 124 118 119 118 117 108 103 96 92 94 93 87 81 80 63 55 59 50 38 43 44 34 20 28 27 15 12 17 35 56 28 35 19 357 251 222 252 277 283 307 324 349 11 37 326 153 169 133 184 160 26 358 35 22 15 348
180 167 175 186 186 184 186 181 176 180 173 166 158 164 158 156 157 159 162 165 167 164 168 166 165 161 152 143 137 125 121 120 124 113 116 118 108 102 91 94 91 80 73 79 52 24 27 10 20 40 34 18 20 12 13 5 6 360 17 54 39 50 5 303 269 277 276 293 295 308 336 341 284 269 319 304 351 77 290 298 188 163 262 307 335
170 183 188 184 184 185 184 179 179 184 178 172 174 164 155 170 174 174 170 182 179 178 179 182 177 173 164 148 132 122 124 131 136 139 140 140 135 138 129 113 110 120 48 101 61 33 13 12 30 41 16 36 36 3 3 11 354 356 0 19 15 43 75 273 275 279 290 306 296 298 301 306 298 299 286 266 210 193 192 224 244 274 226 256 270
182 191 182 186 182 185 186 178 182 182 182 177 166 161 180 183 183 174 176 191 185 181 192 193 191 178 175 159 149 149 146 150 157 163 175 168 164 168 166 154 156 159 140 136 139 62 53 26 39 47 8 14 348 4 21 35 60 31 359 37 8 23 38 277 288 272 285 304 305 314 305 293 287 282 291 279 245 221 196 215 285 275 271 247 278
186 189 187 186 187 186 183 182 185 183 184 178 172 177 186 177 185 176 193 191 179 195 197 197 186 186 183 177 165 165 164 169 189 184 203 182 194 185 163 169 184 201 168 137 153 84 76 81 109 44 19 5 354 328 356 32 35 63 8 18 61 352 352 348 255 276 291 293 298 302 306 308 303 295 286 285 287 254 254 288 273 282 282 281 251
194 194 188 187 190 185 181 185 187 186 184 178 185 185 181 182 179 184 195 186 194 200 197 184 190 189 186 181 170 172 182 182 189 203 174 207 204 179 180 200 192 218 168 214 161 204 224 193 139 163 48 345 334 303 326 325 349 346 29 321 345 99 321 317 292 265 269 269 286 287 297 301 306 306 298 289 285 285 289 291 278 256 258 264 262
196 190 188 194 187 184 184 186 187 187 185 180 185 185 183 184 187 193 194 185 204 201 183 187 198 179 192 190 190 180 185 188 196 193 183 211 213 199 192 213 209 193 183 214 216 183 220 216 241 219 284 287 292 256 216 282 299 314 331 309 306 280 184 236 273 272 261 274 264 270 284 287 293 297 297 296 283 280 283 280 282 287 282 280 282
187 194 194 193 186 184 188 187 188 185 185 186 186 188 181 188 186 190 189 196 201 194 193 199 198 195 195 187 192 191 185 189 188 189 202 204 205 203 215 204 230 218 197 224 185 202 210 216 212 223 228 256 263 296 307 292 297 306 280 283 290 329 309 241 264 281 295 277 272 263 266 275 277 283 289 289 291 289 284 282 281 281 284 287 285
194 196 193 186 185 193 189 188 189 185 187 190 187 189 187 188 187 187 193 197 191 194 201 199 205 204 194 189 189 192 184 189 186 190 196 197 203 207 219 203 225 219 206 213 201 207 210 242 254 251 259 278 294 309 293 284 291 288 314 288 284 293 277 256 241 251 262 275 269 268 268 272 276 275 278 285 287 289 288 287 285 282 281 284 285
204 194 186 184 193 191 191 191 188 188 193 191 190 193 188 187 188 191 192 193 192 192 200 203 205 206 197 192 194 194 187 184 190 190 195 199 202 206 217 223 228 212 203 213 207 205 221 252 281 343 319 328 325 290 297 286 282 282 303 286 313 296 280 288 259 245 252 255 260 262 266 264 266 282 281 278 281 284 286 287 286 286 284 281 282
193 194 184 194 192 192 190 187 192 193 196 194 190 193 192 188 188 191 192 192 194 192 201 204 204 205 199 199 197 200 195 193 183 195 189 195 202 207 216 229 225 212 200 192 203 200 215 224 240 212 260 259 264 269 299 287 275 289 291 285 307 278 304 305 288 273 257 246 243 255 258 264 272 274 281 286 282 280 282 285 288 291 294 294 294
190 193 197 194 186 192 187 193 190 196 195 198 193 196 192 189 190 192 194 194 194 195 194 198 204 205 198 206 200 200 206 196 191 186 193 193 197 209 219 228 201 186 188 199 191 195 200 218 199 218 263 275 265 279 266 265 284 290 283 307 284 290 294 274 283 280 278 274 261 255 249 263 271 270 268 273 289 291 291 294 295 296 296 297 298
199 199 202 191 193 192 189 194 188 196 198 199 196 195 193 193 193 193 193 196 196 197 190 193 200 205 204 207 203 202 204 205 195 187 188 194 197 205 217 205 187 180 202 184 173 191 209 220 221 196 222 258 257 270 227 258 270 275 287 303 293 306 294 288 282 284 285 306 285 284 275 267 269 274 286 293 298 304 311 313 311 309 309 307 303
202 201 200 195 200 197 192 195 191 197 197 199 197 196 190 195 195 195 197 195 200 205 196 189 196 205 206 208 203 202 205 204 200 192 188 194 204 211 213 191 177 184 186 187 195 203 192 211 227 218 204 235 229 257 281 262 280 278 291 285 276 275 274 268 271 267 303 288 284 285 290 292 296 297 289 290 301 309 312 314 316 317 316 312 308
208 207 201 198 203 198 199 200 197 195 195 196 197 196 195 193 196 198 197 201 205 204 201 192 198 202 204 207 202 204 206 201 193 189 194 197 201 213 203 180 175 180 188 183 211 199 203 194 228 219 201 208 236 243 262 259 249 280 282 277 276 263 263 267 264 278 276 277 273 277 286 297 304 294 300 315 323 318 307 308 312 312 311 311 312
209 207 204 204 205 204 200 203 199 195 196 193 191 193 192 196 197 196 200 206 207 206 198 200 201 198 204 203 202 205 209 202 192 185 190 192 200 212 200 190 177 184 186 201 216 206 208 207 215 228 205 214 227 236 249 272 287 276 273 270 270 268 272 269 271 269 259 250 264 280 316 294 310 297 310 321 313 307 306 309 317 315 307 307 308
207 203 205 204 206 205 202 204 203 196 193 188 181 189 189 194 197 203 208 207 204 203 204 205 194 203 204 201 202 203 205 207 197 190 191 191 194 201 205 183 187 178 190 201 220 213 204 201 233 222 233 238 231 247 238 251 281 283 281 281 266 270 273 264 267 255 257 264 279 305 287 301 300 296 302 313 310 307 312 315 314 306 305 303 299
209 204 205 207 205 202 196 206 201 195 190 187 188 189 193 196 202 204 209 203 203 200 205 205 201 204 198 201 203 205 203 207 205 190 197 193 199 200 190 190 187 188 194 213 215 200 198 202 205 187 216 244 272 244 256 152 308 301 284 269 295 270 261 267 265 275 282 288 278 275 283 316 292 295 327 322 311 315 311 308 304 303 300 300 300
214 206 208 208 205 202 203 206 196 198 196 194 193 195 196 199 199 207 203 198 198 202 209 203 205 197 198 203 205 204 205 207 206 199 198 192 194 194 194 197 187 198 207 219 203 198 188 193 170 206 185 202 248 204 210 136 286 235 310 321 303 292 279 290 287 289 277 264 264 281 327 296 295 319 328 324 305 301 296 300 297 297 294 295 297
212 210 209 206 206 206 209 203 199 196 199 199 194 199 200 201 197 200 194 199 214 208 213 203 193 201 204 205 206 205 205 210 206 203 200 197 197 192 202 201 194 192 201 217 204 201 195 194 182 195 222 228 221 222 192 193 230 128 116 357 315 346 333 351 342 303 269 267 292 264 263 280 284 296 297 307 301 300 297 294 293 290 290 291 289
214 215 209 210 210 213 208 204 203 200 200 202 201 202 198 192 196 171 182 180 189 193 204 204 202 206 212 204 208 207 206 209 206 202 203 203 198 199 200 196 201 193 196 205 202 210 190 197 190 209 182 215 211 235 198 195 182 115 312 206 248 81 313 342 324 279 282 296 313 295 307 291 294 311 347 323 307 305 298 296 290 288 287 284 284
212 211 206 206 208 209 207 203 203 204 205 201 198 190 174 168 155 106 118 125 73 180 200 220 214 210 209 206 208 200 206 209 205 203 199 204 201 201 195 199 200 196 194 200 199 206 199 201 196 198 196 209 231 231 259 214 223 213 168 301 317 312 224 275 347 294 21 38 327 325 309 291 297 315 345 314 303 291 289 301 288 284 276 279 283
214 212 205 206 206 206 201 203 207 207 207 202 193 186 187 183 174 179 184 195 204 195 200 209 201 202 211 199 193 198 203 205 204 204 202 200 199 198 197 195 201 198 198 205 204 194 193 192 203 195 202 210 221 208 239 250 229 265 260 231 190 244 296 261 8 295 317 204 282 304 259 262 303 327 320 313 313 310 308 292 289 282 284 283 282
217 207 204 209 207 203 199 202 205 205 203 199 191 189 191 192 192 198 202 203 209 217 220 218 210 214 195 200 203 195 199 200 202 200 202 201 198 193 195 197 198 199 198 196 195 198 202 205 175 176 202 200 181 231 219 216 51 267 236 242 265 200 140 303 249 321 308 316 348 329 311 318 345 286 313 306 297 303 294 291 293 294 294 289 289
210 193 209 207 203 203 200 203 204 204 200 196 193 193 194 195 198 206 206 208 209 219 209 204 190 180 194 203 196 196 195 199 200 199 200 198 197 195 193 195 192 192 180 194 197 199 193 181 185 197 184 172 184 205 229 182 186 236 199 240 268 269 184 197 220 212 267 299 309 304 228 344 331 315 292 284 281 280 287 298 295 297 298 297 292
202 205 206 202 203 204 204 202 206 203 200 193 193 197 200 198 201 204 211 217 214 217 167 167 179 182 198 197 197 196 193 196 197 194 196 195 195 195 187 181 183 184 179 192 200 186 189 185 177 174 189 198 191 205 200 212 200 209 130 198 178 216 123 168 167 143 199 241 294 326 322 313 282 261 284 278 273 280 279 279 286 287 292 296 305
211 210 209 200 200 197 202 203 210 203 195 195 194 198 202 201 205 206 210 213 207 195 167 179 184 184 202 202 199 193 190 190 194 191 190 194 193 189 182 184 184 182 183 189 184 182 186 188 187 192 190 194 183 177 197 197 185 198 180 155 145 97 74 53 99 157 238 198 254 311 307 328 326 286 298 284 300 294 289 288 295 296 296 297 303
208 205 207 202 196 195 199 203 210 201 196 198 193 201 200 204 209 207 209 211 203 189 184 193 186 186 203 203 198 198 187 193 184 192 188 184 191 188 184 184 182 186 189 179 180 183 186 186 184 171 173 182 176 178 182 185 181 168 176 179 196 180 190 186 188 194 154 169 304 265 266 272 274 303 320 331 307 293 287 291 289 293 293 301 307